Limerick, Ireland

5:56 PM GMT on February 24, 2017 (GMT +0000)
Shannon

Weather History for EINN - November, 2013

Change the Weather History Date:

Saturday, November 23, 2013

  Actual Average Record
Temperature  
Mean Temperature 34 °F -  
Max Temperature 42 °F 49 °F 57 °F (2004)
Min Temperature 26 °F 38 °F 26 °F (2013)
Degree Days  
Heating Degree Days 31    
Moisture  
Dew Point 35 °F    
Average Humidity 96    
Maximum Humidity 100    
Minimum Humidity 87    
Precipitation  
Precipitation 0.00 in 0.13 in - ()
Sea Level Pressure  
Sea Level Pressure 30.42 in    
Wind  
Wind Speed 2 mph ()    
Max Wind Speed 6 mph    
Max Gust Speed -    
Visibility 5.0 miles    
Events Fog , Rain    
Averages and records for this station are not official NWS values.
T = Trace of Precipitation, MM = Missing Value Source: Averaged Metar Reports

Daily Weather History Graph

Daily Weather History Graph

Search for Another Location

Airport or City:

Trip Planner

Search our weather history database for the weather conditions in past years. The results will help you decide how hot, cold, wet, or windy it might be!

Date:

Astronomy

Nov. 23, 2013 Rise Set
Actual Time 8:12 AM GMT 4:31 PM GMT
Civil Twilight 7:32 AM GMT 5:10 PM GMT
Nautical Twilight 6:50 AM GMT 5:53 PM GMT
Astronomical Twilight 6:09 AM GMT 6:34 PM GMT
Moon 10:04 PM GMT (11/23) 12:07 PM GMT (11/23)
Length of Visible Light 9h 38m
Length of Day
8h 19m
Waning Gibbous, 71% of the Moon is Illuminated
Nov 23
Waning Gibbous
Nov 25
Last Quarter
Dec 3
New
Dec 9
First Quarter
Dec 17
Full

Hourly Weather History & Observations

Time (GMT) Temp. Windchill Dew Point Humidity Pressure Visibility Wind Dir Wind Speed Gust Speed Precip Events Conditions
12:00 AM 30 °F - 29 °F 94% 30.35 in 12 mi North 2.2 mph - -  
12:00 AM 30.2 °F - 28.4 °F 93% 30.33 in - North 2.3 mph - N/A   Clear
12:30 AM 30.2 °F - 28.4 °F 93% 30.33 in - NNE 1.2 mph - N/A   Clear
1:30 AM 30.2 °F - 28.4 °F 93% 30.33 in - NE 1.2 mph - N/A   Clear
2:00 AM 28.4 °F 22.2 °F 26.6 °F 93% 30.33 in - North 5.8 mph - N/A   Clear
2:30 AM 28.4 °F - 26.6 °F 93% 30.36 in - North 1.2 mph - N/A   Clear
3:00 AM 28.4 °F - 28.4 °F 100% 30.36 in - West 2.3 mph - N/A   Clear
3:30 AM 28.4 °F - 28.4 °F 100% 30.36 in - North 2.3 mph - N/A   Clear
4:00 AM 28.4 °F 24.6 °F 26.6 °F 93% 30.36 in - NNE 3.5 mph - N/A   Clear
4:30 AM 28.4 °F 23.3 °F 28.4 °F 100% 30.36 in - NNE 4.6 mph - N/A   Clear
5:00 AM 28.4 °F 24.6 °F 28.4 °F 100% 30.36 in - North 3.5 mph - N/A   Clear
5:30 AM 28.4 °F - 26.6 °F 93% 30.36 in 6.2 mi NE 1.2 mph - N/A   Partly Cloudy
6:00 AM 28 °F - 27 °F 94% 30.39 in 1 mi West 2.2 mph - - Fog Partial Fog
6:00 AM 26.6 °F - 26.6 °F 100% 30.39 in 0.6 mi West 1.2 mph - N/A Fog Light Freezing Fog
6:30 AM 28.4 °F - 28.4 °F 100% 30.39 in 0.4 mi SSW 1.2 mph - N/A Fog Light Freezing Fog
7:00 AM 30.2 °F 26.7 °F 30.2 °F 100% 30.39 in 0.5 mi SSE 3.5 mph - N/A Fog Light Freezing Fog
7:30 AM 30.2 °F 26.7 °F 30.2 °F 100% 30.39 in 1.2 mi ESE 3.5 mph - N/A   Mostly Cloudy
8:00 AM 30.2 °F 26.7 °F 30.2 °F 100% 30.39 in 2.5 mi NNE 3.5 mph - N/A   Mostly Cloudy
8:30 AM 30.2 °F 25.4 °F 30.2 °F 100% 30.42 in 3.7 mi NNE 4.6 mph - N/A   Mostly Cloudy
9:00 AM 30.2 °F - 30.2 °F 100% 30.42 in 5.0 mi NE 2.3 mph - N/A   Mostly Cloudy
9:30 AM 32.0 °F - 32.0 °F 100% 30.42 in 5.6 mi North 1.2 mph - N/A   Mostly Cloudy
10:00 AM 33.8 °F - 32.0 °F 93% 30.42 in 6.2 mi SW 2.3 mph - N/A   Mostly Cloudy
10:30 AM 33.8 °F - 33.8 °F 100% 30.45 in 5.0 mi NE 2.3 mph - N/A   Mostly Cloudy
11:00 AM 35.6 °F - 35.6 °F 100% 30.42 in 3.7 mi Variable 2.3 mph - N/A   Mostly Cloudy
11:30 AM 35.6 °F 32.8 °F 35.6 °F 100% 30.42 in 3.7 mi SE 3.5 mph - N/A   Mostly Cloudy
12:00 PM 36 °F - 35 °F 93% 30.45 in 4 mi East 2.2 mph - -   Mist
12:00 PM 35.6 °F - 35.6 °F 100% 30.42 in 3.7 mi Variable 2.3 mph - N/A   Mostly Cloudy
12:30 PM 35.6 °F - 35.6 °F 100% 30.42 in 4.3 mi Calm Calm - N/A   Mostly Cloudy
1:00 PM 37.4 °F - 35.6 °F 93% 30.42 in 5.0 mi Variable 2.3 mph - N/A   Mostly Cloudy
1:30 PM 39.2 °F - 37.4 °F 93% 30.42 in 5.6 mi WSW 1.2 mph - N/A   Mostly Cloudy
2:00 PM 39.2 °F - 39.2 °F 100% 30.42 in 6.2 mi WNW 2.3 mph - N/A   Mostly Cloudy
2:30 PM 41.0 °F 39.0 °F 39.2 °F 93% 30.42 in 5.0 mi West 3.5 mph - N/A   Mostly Cloudy
3:00 PM 42.8 °F - 39.2 °F 87% 30.42 in 5.0 mi Variable 2.3 mph - N/A   Light Drizzle
3:30 PM 42.8 °F - 39.2 °F 87% 30.42 in 6.2 mi SSW 1.2 mph - N/A   Mostly Cloudy
4:00 PM 42.8 °F - 41.0 °F 93% 30.45 in 6.2 mi WSW 1.2 mph - N/A   Mostly Cloudy
4:30 PM 42.8 °F - 41.0 °F 93% 30.45 in 6.2 mi Variable 1.2 mph - N/A   Mostly Cloudy
5:00 PM 41.0 °F - 41.0 °F 100% 30.45 in 6.2 mi Calm Calm - N/A   Mostly Cloudy
5:30 PM 42.8 °F - 41.0 °F 93% 30.45 in 6.2 mi Calm Calm - N/A   Mostly Cloudy
6:00 PM 42 °F - 41 °F 93% 30.47 in 9 mi SW 2.2 mph - - Rain Light Drizzle
6:00 PM 42.8 °F - 41.0 °F 93% 30.45 in 6.2 mi SW 2.3 mph - N/A   Mostly Cloudy
6:30 PM 42.8 °F - 41.0 °F 93% 30.45 in 6.2 mi WSW 2.3 mph - N/A   Mostly Cloudy
7:00 PM 42.8 °F 41.1 °F 41.0 °F 93% 30.45 in 6.2 mi WNW 3.5 mph - N/A   Light Drizzle
7:30 PM 42.8 °F - 41.0 °F 93% 30.45 in 6.2 mi NNW 2.3 mph - N/A   Overcast
8:00 PM 42.8 °F - 41.0 °F 93% 30.45 in 5.0 mi NNW 2.3 mph - N/A   Overcast
8:30 PM 42.8 °F - 41.0 °F 93% 30.48 in 5.6 mi Calm Calm - N/A   Mostly Cloudy
9:00 PM 42.8 °F - 41.0 °F 93% 30.48 in 5.0 mi North 1.2 mph - N/A   Mostly Cloudy
9:30 PM 42.8 °F - 41.0 °F 93% 30.48 in 3.7 mi North 2.3 mph - N/A   Overcast
10:00 PM 42.8 °F - 41.0 °F 93% 30.48 in 5.6 mi NW 2.3 mph - N/A   Mostly Cloudy
10:30 PM 42.8 °F 41.1 °F 41.0 °F 93% 30.48 in 6.2 mi NW 3.5 mph - N/A   Mostly Cloudy
11:00 PM 42.8 °F 41.1 °F 41.0 °F 93% 30.48 in 6.2 mi North 3.5 mph - N/A   Mostly Cloudy
11:30 PM 42.8 °F 41.1 °F 42.8 °F 100% 30.48 in 6.2 mi North 3.5 mph - N/A   Mostly Cloudy